Regional Weather Roundup
Issued by NWS

Home | Current Version | Previous Version | Text Only | Print | Product List | Glossary Off
Versions: 1 2 3 4 5 6 7 8 9 10 11 12 13 14 15 16 17 18 19 20 21 22 23 24 25 26 27 28 29 30 31 32 33 34 35 36 37 38 39 40 41 42 43 44 45 46 47 48 49 50

000
ASUS43 KDMX 171301
RWRIA

WEATHER ROUNDUP FOR IOWA
NATIONAL WEATHER SERVICE DES MOINES IA
800 AM CDT TUE OCT 17 2017

NOTE: "FAIR" INDICATES FEW OR NO CLOUDS BELOW 12,000 FEET WITH NO
SIGNIFICANT WEATHER AND/OR OBSTRUCTIONS TO VISIBILITY.

* - THESE STATIONS ARE NOT NWS STATIONS...THUS NOT UNDER NWS
QUALITY CONTROL.  THEY ALSO DO NOT REPORT WEATHER SUCH
AS PRECIPITATION OR FOG.

IAZ001>003-012>014-020>022-031>034-043>046-171400-
   NORTHWEST IOWA

CITY           SKY/WX    TMP DP  RH WIND       PRES   REMARKS
CARROLL *      CLEAR     52  45  76 SW13      30.08S
CHEROKEE *     CLEAR     39  38  98 CALM      30.06F
DENISON *      CLEAR     46  41  81 VRB7      30.10S
LE MARS *      CLEAR     41  39  93 CALM      30.06S
ORANGE CITY *  CLEAR     43  39  87 CALM      30.05S
SHELDON *      CLEAR     37  37 100 S3        30.04S
SIOUX CITY     CLEAR     38  37  97 SE7       30.07S WCI  33
SPENCER        CLEAR     42  38  85 SW5       30.05S
STORM LAKE *   CLEAR     48  39  71 SW10      30.06S
$$

IAZ055>058-069>071-079>083-090>094-171400-
   SOUTHWEST IOWA

CITY           SKY/WX    TMP DP  RH WIND       PRES   REMARKS
ATLANTIC *     CLEAR     43  39  87 SW6       30.12S
AUDUBON *      CLEAR     46  43  87 S5        30.12S
CLARINDA *     CLEAR     45  41  87 S5        30.17S
COUNCIL BLFS * CLEAR     46  43  87 S7        30.10S
CRESTON *      CLEAR     45  41  87 S10       30.15F
HARLAN  *      CLEAR     45  41  87 S7        30.14S
LAMONI         CLEAR     47  40  76 S10       30.17S
RED OAK *      CLEAR     43  39  87 S6        30.14S
SHENANDOAH *   CLEAR     45  41  87 S8        30.15S
$$

IAZ047>049-059>061-072>074-084-171400-
   CENTRAL IOWA

CITY           SKY/WX    TMP DP  RH WIND       PRES   REMARKS
AMES           CLEAR     49  42  77 S7        30.10F
ANKENY *       CLEAR     52  41  66 SW9       30.13S
BOONE *        CLEAR     50  41  71 SW9       30.09F
CHARITON *     CLEAR     46  41  81 S10       30.16S
DES MOINES     PTCLDY    51  40  65 S10       30.12F
GRINNELL*      CLEAR     47  40  76 S12       30.15S
KNOXVILLE *    CLEAR     50  39  66 SW10      30.14S
MARSHALLTOWN   CLEAR     49  41  74 S8        30.11F
NEWTON *       CLEAR     50  41  71 SW10      30.14R
PELLA *        CLEAR     49  40  71 SW9       30.16S
PERRY *          N/A     47  38  73 CALM      30.11S
$$

IAZ004>006-015-016-023>025-035-036-171400-
   NORTH CENTRAL IOWA

CITY           SKY/WX    TMP DP  RH WIND       PRES   REMARKS
ALGONA *       CLEAR     45  41  87 S9        30.06S
CLARION *      CLEAR     43  43 100 S7        30.08S
ESTHERVILLE    CLEAR     47  40  76 SW8       30.03F
FORT DODGE *   CLEAR     46  40  79 S7        30.08S
MASON CITY     CLEAR     49  40  71 SW12      30.08R
FOREST CITY *    N/A     41  37  87 CALM      30.06S
WEBSTER CITY * CLEAR     45  39  81 S7        30.07S
IOWA FALLS *     N/A     46  41  80 S6        30.10S
$$

IAZ007>011-017>019-026>030-037>042-050>054-066-171400-
   NORTHEAST IOWA

CITY           SKY/WX    TMP DP  RH WIND       PRES   REMARKS
CEDAR RAPIDS   CLEAR     49  41  74 S10       30.14S
CHARLES CITY * CLEAR     43  41  93 S6        30.08S
CLINTON *      CLEAR     49  42  77 SW8       30.19R
DECORAH *      CLEAR     48  41  76 VRB5      30.07S
DUBUQUE        CLEAR     46  40  79 SW10      30.13R
MONTICELLO *   CLEAR     50  41  71 SW7       30.13S
OELWEIN *      CLEAR     43  43 100 S8        30.11S
WATERLOO       CLEAR     49  40  71 SW7       30.10R
$$

IAZ064-065-067-068-078-171400-
   EAST CENTRAL IOWA

CITY           SKY/WX    TMP DP  RH WIND       PRES   REMARKS
DAVENPORT      CLEAR     50  40  68 S10       30.20S
IOWA CITY      CLEAR     48  40  73 S3        30.18S
MUSCATINE *    CLEAR     50  41  71 S8        30.20S
QUAD CITIES    CLEAR     50  40  68 SW9       30.19S
$$

IAZ062-063-075>077-085>089-095>099-171400-
   SOUTHEAST IOWA

CITY           SKY/WX    TMP DP  RH WIND       PRES   REMARKS
BURLINGTON     PTCLDY    48  43  82 S7        30.22S
FAIRFIELD *    PTCLDY    50  39  66 S10       30.18F
FORT MADISON * PTCLDY    52  43  71 S8        30.23R
KEOKUK *       PTCLDY    48  43  81 S5        30.23R
OSKALOOSA *      N/A     47  41  79 SW10      30.17S
OTTUMWA        CLEAR     48  41  76 S10       30.17F
WASHINGTON *   CLEAR     50  43  76 S12       30.19S
$$

ABBREVIATIONS USED IN REMARKS
   TC - TEMPERATURES IN CELSIUS
  WCI - WIND CHILL INDEX
   HX - HEAT INDEX
  VSB - VISIBILITY
$$





USA.gov is the U.S. government's official web portal to all federal, state and local government web resources and services.